Regional Weather Roundup
Issued by NWS

Home | Current Version | Previous Version | Text Only | Print | Product List | Glossary On
Versions: 1 2 3 4 5 6 7 8 9 10 11 12 13 14 15 16 17 18 19 20 21 22 23 24 25 26 27
000
ASUS42 KFFC 020903
RWRGA
WEATHER ROUNDUP FOR GEORGIA
NATIONAL WEATHER SERVICE PEACHTREE CITY GA
500 AM EDT MON MAY 02 2016

NOTE: "FAIR" INDICATES FEW OR NO CLOUDS BELOW 12,000 FEET WITH NO
SIGNIFICANT WEATHER AND/OR OBSTRUCTIONS TO VISIBILITY.

* = USE WITH CAUTION. THE STATIONS MARKED WITH AN ASTERISK MAY NOT
REPORT WEATHER SUCH AS PRECIPITATION, FOG, OR THUNDER AND ARE NOT
QUALITY CONTROLLED BY NWS.

THE REMARK "TC" DENOTES TEMPERATURE READING IN DEGREES CELSIUS.

GAZ001>058-021000-
NORTH GEORGIA

CITY           SKY/WX    TMP DP  RH WIND       PRES   REMARKS
ATLANTA        MOCLDY    67  63  87 CALM      30.01F
ATHENS         PTCLDY    69  68  96 CALM      30.01S
CHAMBLEE       CLOUDY    66  66 100 CALM      30.02S FOG
PEACHTREE CITY MOCLDY    64  63  96 CALM      30.02S
ROME           FOG       59  58  96 CALM      30.01S VSB 1/4
WEST ATLANTA   CLOUDY    65  63  93 CALM      30.01S
GAINESVILLE    CLOUDY    65  64  97 W3        30.04S
CARTERSVILLE   PTCLDY    59  59 100 CALM      30.02S


CITY           SKY/WX    TMP DP  RH WIND       PRES   REMARKS
DALTON*        CLOUDY    61  61 100 CALM      30.01F FOG
CANTON*        FOG       63  61  94 CALM      30.03F VSB 1/2
BLAIRSVILLE*   FOG      N/A N/A N/A MISG      30.06S VSB<1/4
$$

GAZ059>098-102>109-021000-
CENTRAL GEORGIA

CITY           SKY/WX    TMP DP  RH WIND       PRES   REMARKS
AUGUSTA-BUSH   CLOUDY    65  64  97 CALM      30.02R
AUGUSTA-DANIEL CLOUDY    68  65  90 S6        30.03R
COLUMBUS       MOCLDY    68  65  90 CALM      29.99S
MACON          CLOUDY    69  65  86 S3        30.00F


CITY           SKY/WX    TMP DP  RH WIND       PRES   REMARKS
LAGRANGE*      MOCLDY    63  63 100 CALM      30.00F
SYLVANIA*      CLOUDY    65  65 100 CALM      30.03S FOG
MILLEDGEVILLE* CLOUDY    70  64  83 CALM      30.00F
$$

GAZ099>101-110>166-021000-
SOUTH GEORGIA

CITY           SKY/WX    TMP DP  RH WIND       PRES   REMARKS
SAVANNAH       PTCLDY    72  69  90 S7        30.03S
VALDOSTA       PTCLDY    67  66  97 CALM      29.99S
ALMA           MOCLDY    69  68  96 CALM      30.01S
ST SIMONS      CLEAR     73  72  96 S6        30.02F
FT STEWART     FOG       66  64  94 CALM      30.00F VSB 1
ALBANY         MOCLDY    68  64  87 CALM      30.01R
BRUNSWICK      CLEAR     73  70  88 SE5       30.03F


CITY           SKY/WX    TMP DP  RH WIND       PRES   REMARKS
BAINBRIDGE*    CLOUDY    70  68  94 E3        29.98S
MOULTRIE*      MOCLDY    66  64  94 CALM      30.00F
VIDALIA*       CLOUDY    66  64  94 CALM      30.01F
WAYCROSS*      MOCLDY    70  70 100 SE3       30.00S
DOUGLAS*       PTCLDY    70  68  94 CALM      30.02S
$$




USA.gov is the U.S. government's official web portal to all federal, state and local government web resources and services.